Omaha Offutt, NE

10:48 PM CDT on March 23, 2017 (GMT -0500)
Offutt Air Force Base

Weather History for KOFF - October, 2012

Change the Weather History Date:

Monday, October 15, 2012

  Actual Average Record
Temperature  
Mean Temperature 55 °F -  
Max Temperature 73 °F 64 °F 78 °F (1998)
Min Temperature 37 °F 42 °F 34 °F (2011)
Degree Days  
Heating Degree Days 10    
Growing Degree Days 5 (Base 50)    
Moisture  
Dew Point 42 °F    
Average Humidity 70    
Maximum Humidity 100    
Minimum Humidity 33    
Precipitation  
Precipitation 0.00 in - - ()
Sea Level Pressure  
Sea Level Pressure 29.91 in    
Wind  
Wind Speed 3 mph (SE)    
Max Wind Speed 12 mph    
Max Gust Speed -    
Visibility 9 miles    
Events      
Averages and records for this station are not official NWS values.
T = Trace of Precipitation, MM = Missing Value Source: NWS Daily Summary

Daily Weather History Graph

Daily Weather History Graph

Search for Another Location

Airport or City:

Trip Planner

Search our weather history database for the weather conditions in past years. The results will help you decide how hot, cold, wet, or windy it might be!

Date:

Astronomy

Oct. 15, 2012 Rise Set
Actual Time 7:35 AM CDT 6:42 PM CDT
Civil Twilight 7:08 AM CDT 7:09 PM CDT
Nautical Twilight 6:36 AM CDT 7:41 PM CDT
Astronomical Twilight 6:04 AM CDT 8:13 PM CDT
Moon 7:48 AM CDT (10/15) 6:41 PM CDT (10/15)
Length of Visible Light 12h 01m
Length of Day
11h 06m
New Moon, 0% of the Moon is Illuminated
Oct 15
New Moon
Oct 21
First Quarter
Oct 29
Full
Nov 6
Last Quarter
Nov 13
New

Hourly Weather History & Observations

Time (CDT) Temp. Windchill Dew Point Humidity Pressure Visibility Wind Dir Wind Speed Gust Speed Precip Events Conditions
12:55 AM 44.6 °F - 40.8 °F 87% 29.98 in 10.0 mi Calm Calm - N/A   Clear
1:55 AM 43.5 °F - 39.2 °F 85% 29.98 in 10.0 mi Calm Calm - N/A   Scattered Clouds
2:55 AM 40.8 °F - 39.7 °F 96% 29.98 in 10.0 mi Calm Calm - N/A   Clear
3:55 AM 39.4 °F - 38.7 °F 97% 29.97 in 10.0 mi Calm Calm - N/A   Clear
4:55 AM 38.5 °F - 37.9 °F 98% 29.97 in 10.0 mi Calm Calm - N/A   Clear
5:01 AM 39.2 °F - 39.2 °F 100% 29.97 in 2.0 mi Calm Calm - N/A   Clear
5:02 AM 39.2 °F - 37.4 °F 93% 29.97 in 1.8 mi Calm Calm - N/A   Clear
5:10 AM 37.4 °F - 37.4 °F 100% 29.97 in 10.0 mi Calm Calm - N/A   Clear
5:55 AM 37.4 °F - 37.2 °F 99% 29.98 in 10.0 mi Calm Calm - N/A   Clear
6:55 AM 38.5 °F - 38.1 °F 99% 29.99 in 10.0 mi Calm Calm - N/A   Clear
7:55 AM 37.6 °F 35.1 °F 37.2 °F 99% 29.99 in 10.0 mi East 3.5 mph - N/A   Clear
8:55 AM 45.3 °F 43.0 °F 42.3 °F 89% 30.00 in 10.0 mi East 4.6 mph - N/A   Clear
9:55 AM 52.7 °F - 41.9 °F 67% 30.00 in 10.0 mi ESE 4.6 mph - N/A   Clear
10:55 AM 58.3 °F - 42.8 °F 56% 29.98 in 10.0 mi SE 6.9 mph - N/A   Clear
11:55 AM 64.6 °F - 42.3 °F 44% 29.96 in 10.0 mi SE 10.4 mph - N/A   Clear
12:55 PM 68.0 °F - 41.4 °F 38% 29.94 in 10.0 mi SSE 8.1 mph - N/A   Clear
1:55 PM 70.7 °F - 42.4 °F 36% 29.90 in 10.0 mi SE 6.9 mph - N/A   Clear
2:55 PM 72.5 °F - 42.4 °F 34% 29.86 in 10.0 mi SE 9.2 mph - N/A   Clear
3:55 PM 73.8 °F - 43.2 °F 33% 29.85 in 10.0 mi SSE 9.2 mph - N/A   Clear
4:55 PM 73.2 °F - 44.4 °F 36% 29.83 in 10.0 mi SE 11.5 mph - N/A   Clear
5:55 PM 70.5 °F - 46.0 °F 42% 29.82 in 10.0 mi SE 9.2 mph - N/A   Clear
6:55 PM 63.9 °F - 46.0 °F 52% 29.81 in 10.0 mi ESE 5.8 mph - N/A   Clear
7:55 PM 56.3 °F - 44.1 °F 64% 29.82 in 10.0 mi East 6.9 mph - N/A   Clear
8:55 PM 60.6 °F - 46.0 °F 59% 29.80 in 10.0 mi ESE 6.9 mph - N/A   Overcast
9:55 PM 58.3 °F - 45.9 °F 63% 29.79 in 10.0 mi ESE 6.9 mph - N/A   Overcast
10:55 PM 58.5 °F - 46.8 °F 65% 29.78 in 10.0 mi SE 8.1 mph - N/A   Scattered Clouds
11:55 PM 56.7 °F - 47.1 °F 70% 29.75 in 10.0 mi ESE 9.2 mph - N/A   Partly Cloudy